SCP
0 0 0 0 0 0 0 1 2 2 2 2 2 1 1 1 1 1 1 1 1 1 1 1 2 2 1 0 0 0 0 0 0 0 0 0 0 0 0 0 0 1 1
0 0 0 0 0 0 0 1 2 2 2 2 2 1 1 1 0 1 1 1 1 0 0 1 2 2 1 0 0 0 0 0 0 0 0 0 0 0 0 0 0 1 1
0 0 0 0 0 0 1 1 2 2 2 2 2 1 1 1 0 0 0 0 0 0 0 1 2 2 1 0 0 0 0 0 0 0 0 0 0 0 0 0 0 0 1
0 0 0 0 0 0 1 1 2 2 2 2 2 1 1 1 1 1 0 0 0 0 0 1 1 1 1 0 0 0 0 0 0 0 0 0 0 0 0 0 0 0 0
0 0 0 0 0 0 0 1 1 1 2 2 2 1 1 1 1 1 1 0 0 1 1 1 1 1 0 0 0 0 0 0 0 0 0 0 0 0 0 0 0 0 0
0 0 0 0 0 0 0 0 0 0 1 1 1 1 1 1 1 1 1 1 1 1 1 1 1 0 0 0 0 0 0 0 0 0 0 0 0 0 0 0 0 0 0
0 0 0 0 0 0 0 0 0 0 0 0 1 1 1 1 1 1 1 1 1 1 1 1 0 0 0 0 0 0 0 0 0 0 0 0 0 0 0 0 0 0 0
0 0 0 0 0 0 0 0 0 0 0 0 0 0 0 0 1 1 1 1 1 1 1 0 0 0 0 0 0 0 0 0 0 0 0 0 0 0 0 0 0 0 0
0 0 0 0 0 0 0 0 1 1 0 0 0 0 0 0 0 1 1 1 1 1 1 1 0 0 0 0 0 0 0 0 0 0 0 0 0 0 0 0 0 0 0
0 0 0 0 0 0 1 1 1 1 0 0 0 0 0 0 0 1 1 1 1 1 1 1 1 0 0 0 0 0 0 0 0 0 0 0 0 0 0 0 0 0 0
0 0 0 0 0 0 1 1 1 0 0 0 0 0 0 0 0 1 1 1 1 1 1 1 1 1 0 0 0 0 0 0 0 0 0 0 0 0 0 0 0 0 0
0 0 0 0 0 0 0 0 0 0 0 0 0 0 0 0 1 1 1 1 1 1 1 1 1 1 1 0 0 0 0 0 0 0 0 0 0 0 0 0 0 0 0
0 0 0 0 0 0 0 0 0 0 0 0 0 0 0 0 1 1 1 1 1 1 1 1 1 1 1 1 0 0 0 0 0 0 0 0 0 0 0 0 0 0 0
0 0 0 0 0 0 0 0 0 0 0 0 0 0 0 0 1 1 1 1 1 1 1 1 1 1 1 1 0 0 0 0 0 0 0 0 0 0 0 0 0 0 0
0 0 0 0 0 0 0 0 0 0 0 0 0 0 0 0 0 0 1 1 1 1 1 1 1 1 1 1 0 0 0 0 0 0 0 0 0 0 0 0 0 0 0
0 0 0 0 0 0 0 0 0 0 0 0 0 0 0 0 0 0 0 0 0 0 0 1 1 1 1 1 0 0 0 0 0 0 0 0 0 0 0 0 0 0 0
0 0 0 0 0 0 0 0 0 0 0 0 0 0 0 0 0 0 0 0 0 0 0 0 1 1 1 0 0 0 0 0 0 0 0 0 0 0 0 0 0 0 0
0 0 0 0 0 0 0 0 0 0 0 0 0 0 0 0 0 0 0 0 0 0 0 0 1 1 0 0 0 0 0 0 0 0 0 0 0 0 0 0 0 0 0
0 0 0 0 0 0 0 0 0 0 0 0 0 0 0 0 0 0 0 0 0 0 0 0 0 0 0 0 0 0 0 0 0 0 0 0 0 0 0 0 0 0 0
0 0 0 0 0 0 0 0 0 0 0 0 0 0 0 0 0 0 0 0 0 0 0 0 0 0 0 0 0 0 0 0 0 0 0 0 0 0 0 0 0 0 0
0 0 0 0 0 0 0 0 0 0 0 0 0 0 0 0 0 0 0 0 0 0 0 0 0 0 0 0 0 0 0 0 0 0 0 0 0 0 0 0 0 0 0
0 0 0 0 0 0 0 0 0 0 0 0 0 0 0 0 0 0 0 0 0 0 0 0 0 0 0 0 0 0 0 0 0 0 0 0 0 0 0 0 0 0 0
0 0 0 0 0 0 0 0 0 0 0 0 0 0 0 0 0 0 0 0 0 0 0 0 0 0 0 0 0 0 0 0 0 0 0 0 0 0 0 0 0 0 0
0 0 0 0 0 0 0 0 0 0 0 0 0 0 0 0 0 0 0 0 0 0 0 0 0 0 0 0 0 0 0 0 0 0 0 0 0 0 0 0 0 0 0
0 0 0 0 0 0 0 0 0 0 0 0 0 0 0 0 0 0 0 0 0 0 0 0 0 0 0 0 0 0 0 0 0 0 0 0 0 0 0 0 0 0 0
0 0 0 0 0 0 0 0 0 0 0 0 0 0 0 0 0 0 0 0 0 0 0 0 0 0 0 0 0 0 0 0 0 0 0 0 0 0 0 0 0 0 0
Wind_Speed
6 4 3 3 3 3 3 4 3 3 2 2 1 2 2 2 1 2 2 3 2 2 2 2 2 3 3 4 4 3 3 3 2 1 3 4 5 5 5 5 5 6 7
4 4 3 2 3 3 4 3 3 3 3 2 2 2 2 2 2 2 2 3 3 2 2 3 3 3 3 3 4 3 2 2 2 1 2 3 4 4 5 4 5 6 5
8 6 4 3 3 3 4 3 3 3 3 2 1 0 1 1 1 2 2 3 3 3 3 3 3 3 3 4 4 4 4 3 3 3 3 2 4 3 3 5 5 5 5
7 6 5 4 4 3 3 2 2 3 2 2 2 2 2 2 3 3 2 3 3 3 4 4 4 4 3 4 4 4 3 4 3 3 4 4 3 3 4 4 4 5 6
8 8 7 6 4 3 2 2 1 1 1 2 2 2 2 2 2 2 2 3 2 3 3 4 3 4 3 4 4 3 3 4 4 4 3 3 3 4 4 6 5 4 5
6 6 5 4 3 2 3 2 2 1 0 1 1 2 2 2 1 2 2 2 2 2 3 3 3 3 3 4 4 4 4 4 5 4 3 3 3 3 4 5 6 6 6
7 6 5 5 4 3 3 3 3 1 0 1 0 1 2 2 2 3 2 2 2 2 3 3 3 3 3 4 4 4 5 5 5 5 5 5 5 4 4 5 6 6 5
6 6 6 6 5 4 4 3 3 1 1 0 1 1 1 1 2 2 2 2 3 3 3 3 3 4 4 4 4 4 5 4 5 6 6 5 5 5 5 5 5 7 6
5 6 5 5 5 5 4 4 3 2 1 1 1 1 1 1 1 2 2 2 3 3 3 3 4 4 4 5 4 4 5 5 5 5 6 5 5 5 5 5 5 5 8
4 4 4 4 4 4 3 2 3 2 1 1 0 1 1 1 2 1 2 3 3 3 3 3 4 4 5 5 4 4 5 5 5 4 6 6 5 5 4 5 5 5 7
5 5 4 4 3 2 2 2 1 1 0 0 1 1 1 2 2 2 2 3 3 3 4 4 4 5 5 5 5 5 5 6 6 5 6 7 6 5 4 4 5 5 6
4 4 4 3 3 2 2 1 1 0 0 0 1 1 2 2 2 2 3 3 3 4 4 4 4 5 5 5 6 6 6 6 6 6 6 7 6 6 5 5 6 6 6
4 4 3 3 3 2 2 1 1 0 0 1 1 1 2 2 2 3 3 3 3 4 4 4 4 5 5 5 5 6 6 6 6 6 7 7 7 7 6 6 7 6 6
5 5 4 3 3 3 2 1 0 0 0 1 1 2 2 3 3 3 3 3 4 4 4 5 5 5 5 5 5 5 6 6 7 7 7 7 8 8 8 7 7 6 6
4 5 5 4 2 2 1 1 0 1 1 1 2 2 3 3 3 3 4 4 4 5 5 5 5 5 5 5 5 5 6 6 6 6 6 7 9 11 9 8 6 6 5
6 5 4 4 3 2 1 0 0 1 1 1 2 3 3 3 3 4 4 4 5 5 5 5 5 6 5 9 10 8 6 6 6 7 7 7 9 10 12 13 11 9 7
5 5 5 4 3 2 2 1 0 1 1 1 2 3 3 4 4 5 5 5 5 5 6 6 5 6 7 11 11 11 7 6 6 6 7 7 7 9 8 10 11 10 11
4 4 4 3 2 2 1 1 1 1 1 2 3 3 3 4 5 4 5 5 5 5 6 6 6 6 8 11 11 10 6 6 6 6 7 7 7 7 8 7 7 7 7
4 3 3 3 2 1 1 2 1 1 1 2 3 3 3 4 4 5 5 5 5 5 5 5 5 6 7 10 10 9 5 5 6 7 7 7 7 11 11 8 8 7 6
3 3 3 3 2 1 1 1 1 1 2 3 3 3 3 3 4 5 5 5 5 5 5 5 5 5 6 9 10 9 4 5 5 6 6 9 10 11 11 7 7 8 7
3 3 3 2 1 1 1 0 1 2 3 3 3 3 3 4 4 5 4 5 5 5 5 5 5 5 6 8 9 9 4 5 5 5 5 6 11 12 12 10 7 8 7
3 3 3 1 0 1 1 0 2 2 2 2 3 3 4 4 4 4 5 4 4 5 5 4 5 4 4 6 8 10 9 9 6 6 5 6 10 11 11 8 8 9 7
2 2 2 1 1 1 1 1 2 2 2 2 3 3 4 3 3 4 4 4 4 4 4 4 5 5 4 5 9 10 10 10 6 5 8 10 10 9 7 8 9 7 3
2 2 2 1 1 1 1 1 2 2 1 2 3 3 3 4 4 3 3 3 4 4 4 5 5 5 5 4 4 4 5 6 6 5 6 8 8 7 7 6 5 3 3
1 1 2 1 1 1 2 2 2 1 2 2 3 3 3 3 4 4 3 4 3 4 5 4 4 5 6 7 11 7 4 4 4 4 3 3 3 3 3 3 3 3 2
1 1 1 1 1 1 2 3 2 1 2 2 3 2 3 3 3 4 5 6 7 10 11 10 8 7 9 12 12 10 9 9 7 4 3 3 3 3 3 3 3 2 2
Wind_Direction
232 213 193 175 166 172 172 182 181 191 174 172 186 194 216 224 226 234 234 224 223 223 223 235 228 219 216 219 217 224 231 239 236 270 285 276 257 247 242 238 240 240 238
222 208 189 173 170 182 188 187 186 190 190 194 204 205 202 217 220 237 245 232 224 221 228 227 222 216 223 226 220 213 220 243 206 207 288 291 293 266 249 247 242 244 238
201 200 189 186 178 187 190 188 191 189 195 192 179 75 63 354 293 272 257 247 226 217 220 224 226 219 216 227 226 213 209 235 234 201 203 239 255 291 265 250 247 246 244
192 188 179 180 184 197 189 185 196 185 191 180 168 173 198 229 241 240 247 259 245 236 230 226 228 226 221 225 228 224 222 215 234 235 222 229 239 259 287 277 254 250 250
185 184 180 181 181 175 165 165 178 181 188 184 180 181 214 228 246 246 245 255 258 244 234 225 224 228 227 227 231 232 228 218 225 233 236 246 254 242 254 277 280 267 249
180 176 168 157 163 161 153 150 149 161 160 164 182 191 209 225 242 264 254 254 256 248 236 225 225 233 235 233 232 231 233 235 235 235 232 234 237 244 245 263 273 273 266
170 166 163 163 166 165 173 165 155 165 177 121 202 214 216 209 219 237 238 250 254 253 242 237 237 241 242 239 237 236 241 241 244 241 240 240 244 245 250 261 270 272 276
173 173 176 174 173 177 181 167 159 170 200 162 270 278 247 226 235 236 228 235 246 253 249 236 237 243 243 245 238 239 242 245 247 254 249 247 248 248 246 249 265 278 275
181 179 178 176 175 176 179 173 168 172 192 203 252 315 298 269 268 269 260 255 258 261 258 247 242 245 246 242 237 240 244 245 246 252 251 252 252 251 252 254 251 260 277
185 181 178 181 178 173 168 151 155 173 210 226 240 333 308 291 284 287 277 274 274 269 263 260 257 251 249 244 239 242 243 245 250 256 261 259 259 260 254 253 252 248 259
190 185 180 173 162 151 145 142 127 109 19 322 334 345 320 307 303 296 291 285 286 281 268 262 261 258 254 250 244 247 247 250 257 262 265 268 263 260 259 260 258 255 254
186 178 170 153 143 146 145 134 122 97 278 326 3 341 324 324 322 311 303 301 297 293 286 277 270 266 263 255 247 252 254 250 256 261 264 271 272 263 261 257 257 258 253
177 168 163 161 162 160 149 132 132 180 317 24 16 346 332 325 311 303 301 302 298 296 295 289 280 276 272 265 255 251 253 250 250 255 260 268 273 266 264 261 260 261 262
182 175 175 179 176 174 164 147 167 300 16 30 6 335 317 306 302 300 300 299 297 296 295 291 288 281 275 267 264 262 259 257 255 254 254 258 265 266 264 263 261 263 263
188 183 179 181 179 173 170 135 345 344 19 13 337 314 312 311 305 306 304 303 301 299 296 298 296 291 282 272 274 266 264 263 266 265 260 261 270 274 271 271 268 263 263
198 188 179 174 180 191 195 164 337 333 5 339 307 313 322 321 312 307 306 305 302 298 297 294 291 289 289 296 293 286 269 268 269 274 275 272 269 278 279 280 279 271 266
190 179 176 175 183 192 180 172 206 346 2 321 314 319 320 323 317 313 313 306 303 299 295 289 285 283 286 296 296 293 282 270 267 270 276 282 281 285 275 276 278 270 268
169 168 163 159 163 152 137 118 64 10 336 315 312 314 318 316 317 315 309 304 298 293 288 286 282 282 291 298 298 299 287 271 268 268 268 272 276 275 284 278 272 268 266
160 163 162 149 135 128 116 86 31 345 324 305 301 307 314 315 318 316 311 306 300 295 290 284 281 281 289 298 299 301 283 279 277 276 275 275 272 281 290 283 275 276 276
127 128 121 111 110 107 104 101 309 309 293 293 301 311 314 315 313 309 307 305 299 294 297 296 285 280 285 295 299 300 282 284 284 281 277 280 284 287 290 279 272 273 279
116 116 113 114 135 140 115 128 291 285 290 303 316 318 317 311 305 308 311 313 312 309 307 301 294 282 285 293 297 299 291 283 285 285 284 281 290 292 293 293 280 279 287
105 107 105 91 47 95 106 53 292 292 307 315 317 316 314 315 324 321 317 317 319 319 313 306 304 296 293 301 299 299 297 295 283 281 282 283 294 298 301 300 298 301 300
113 109 118 98 1 9 105 246 289 301 318 326 319 315 318 319 319 316 317 320 324 321 318 314 311 311 307 301 307 307 304 302 295 287 296 300 302 305 304 302 307 308 294
131 134 130 130 310 323 324 264 288 303 314 312 311 314 317 319 321 318 317 318 320 318 316 315 312 311 311 309 303 295 300 304 302 301 305 313 315 309 307 311 314 308 297
172 166 172 197 251 302 315 307 306 313 307 306 309 313 315 314 313 314 310 311 298 303 308 303 300 307 309 312 317 316 309 301 297 310 310 309 313 314 316 319 317 319 327
179 183 191 224 264 294 308 315 318 312 302 308 310 308 310 312 313 314 318 318 317 319 319 317 313 309 312 319 323 324 322 320 319 323 316 313 312 308 308 312 320 329 327